• en France
  • Liste des pays
  • À 7 jours
  • Température de l'eau
  • Carte satellitaire
  • Carte météo
  • Widgets météo
  • user-avatar
    Se connecter

    Météo par heure à Vidin

    Ce jour, 25 Septembre, Lundi

    Heure Température Précipitation Vent Pression Humidité
    00:00 +16°C° 0 mm 1 m/s 761 mmHg 65%
    01:00 +16°C° 0 mm 1 m/s 761 mmHg 66%
    02:00 +16°C° 0 mm 1 m/s 762 mmHg 69%
    03:00 +16°C° 0,2 mm 1 m/s 762 mmHg 70%
    04:00 +16°C° 0,2 mm 1 m/s 762 mmHg 70%
    05:00 +16°C° 0,2 mm 2 m/s 762 mmHg 71%
    06:00 +16°C° 0,2 mm 2 m/s 762 mmHg 70%
    07:00 +16°C° 0,2 mm 2 m/s 762 mmHg 69%
    08:00 +16°C° 0 mm 2 m/s 762 mmHg 66%
    09:00 +17°C° 0,2 mm 3 m/s 762 mmHg 64%
    10:00 +18°C° 0,2 mm 3 m/s 762 mmHg 63%
    11:00 +19°C° 0,2 mm 3 m/s 762 mmHg 62%
    12:00 +20°C° 0,1 mm 4 m/s 762 mmHg 57%
    13:00 +21°C° 0,1 mm 4 m/s 762 mmHg 52%
    14:00 +23°C° 0,1 mm 4 m/s 761 mmHg 47%
    15:00 +23°C° 0 mm 4 m/s 761 mmHg 47%
    16:00 +23°C° 0 mm 4 m/s 761 mmHg 46%
    17:00 +23°C° 0 mm 4 m/s 761 mmHg 45%
    18:00 +21°C° 0 mm 4 m/s 761 mmHg 48%
    19:00 +20°C° 0 mm 3 m/s 762 mmHg 51%
    20:00 +19°C° 0 mm 3 m/s 762 mmHg 55%
    21:00 +19°C° 0 mm 3 m/s 762 mmHg 56%
    22:00 +19°C° 0 mm 3 m/s 762 mmHg 57%
    23:00 +19°C° 0 mm 3 m/s 762 mmHg 58%

    Demain, 26 Septembre, Mardi

    Heure Température Précipitation Vent Pression Humidité
    00:00 +18°C° 0,1 mm 3 m/s 762 mmHg 59%
    01:00 +18°C° 0,1 mm 3 m/s 762 mmHg 60%
    02:00 +18°C° 0,1 mm 2 m/s 762 mmHg 62%
    03:00 +17°C° 0 mm 2 m/s 762 mmHg 64%
    04:00 +17°C° 0 mm 2 m/s 762 mmHg 66%
    05:00 +17°C° 0 mm 2 m/s 761 mmHg 68%
    06:00 +17°C° 0 mm 2 m/s 762 mmHg 67%
    07:00 +17°C° 0 mm 2 m/s 762 mmHg 66%
    08:00 +18°C° 0 mm 2 m/s 762 mmHg 66%
    09:00 +19°C° 0 mm 3 m/s 762 mmHg 62%
    10:00 +20°C° 0 mm 3 m/s 762 mmHg 59%
    11:00 +22°C° 0 mm 4 m/s 762 mmHg 56%
    12:00 +22°C° 0,2 mm 4 m/s 762 mmHg 55%
    13:00 +22°C° 0,2 mm 4 m/s 762 mmHg 55%
    14:00 +22°C° 0,2 mm 4 m/s 762 mmHg 55%
    15:00 +22°C° 0,3 mm 4 m/s 762 mmHg 56%
    16:00 +22°C° 0,3 mm 3 m/s 762 mmHg 58%
    17:00 +22°C° 0,3 mm 3 m/s 762 mmHg 59%
    18:00 +21°C° 0,2 mm 3 m/s 762 mmHg 60%
    19:00 +20°C° 0,2 mm 2 m/s 762 mmHg 61%
    20:00 +20°C° 0,2 mm 2 m/s 763 mmHg 63%
    21:00 +19°C° 0,4 mm 2 m/s 763 mmHg 62%
    22:00 +19°C° 0,4 mm 3 m/s 763 mmHg 61%
    23:00 +19°C° 0,4 mm 3 m/s 763 mmHg 60%

    Après-demain, 27 Septembre, Mercredi

    Heure Température Précipitation Vent Pression Humidité
    00:00 +18°C° 0,1 mm 3 m/s 764 mmHg 60%
    01:00 +17°C° 0,1 mm 3 m/s 764 mmHg 61%
    02:00 +16°C° 0,1 mm 3 m/s 764 mmHg 62%
    03:00 +16°C° 0,1 mm 3 m/s 764 mmHg 60%
    04:00 +16°C° 0,1 mm 3 m/s 764 mmHg 57%
    05:00 +14°C° 0,1 mm 3 m/s 764 mmHg 55%
    06:00 +14°C° 0,1 mm 3 m/s 764 mmHg 54%
    07:00 +15°C° 0,1 mm 4 m/s 765 mmHg 53%
    08:00 +15°C° 0,1 mm 4 m/s 765 mmHg 52%
    09:00 +17°C° 0,1 mm 4 m/s 765 mmHg 51%
    10:00 +17°C° 0,1 mm 5 m/s 766 mmHg 50%
    11:00 +19°C° 0,1 mm 5 m/s 766 mmHg 50%
    12:00 +19°C° 0 mm 5 m/s 766 mmHg 49%
    13:00 +20°C° 0 mm 5 m/s 766 mmHg 49%
    14:00 +20°C° 0 mm 5 m/s 766 mmHg 49%
    15:00 +20°C° 0 mm 5 m/s 766 mmHg 51%
    16:00 +19°C° 0 mm 4 m/s 766 mmHg 52%
    17:00 +19°C° 0 mm 4 m/s 766 mmHg 54%
    18:00 +18°C° 0 mm 3 m/s 766 mmHg 58%
    19:00 +17°C° 0 mm 3 m/s 766 mmHg 63%
    20:00 +16°C° 0 mm 2 m/s 766 mmHg 67%
    21:00 +16°C° 0 mm 2 m/s 767 mmHg 69%
    22:00 +15°C° 0 mm 2 m/s 767 mmHg 71%
    23:00 +15°C° 0 mm 2 m/s 767 mmHg 73%

    28 Septembre, Jeudi

    Heure Température Précipitation Vent Pression Humidité
    00:00 +15°C° 0 mm 2 m/s 767 mmHg 73%
    01:00 +14°C° 0 mm 2 m/s 767 mmHg 72%
    02:00 +13°C° 0 mm 3 m/s 767 mmHg 72%
    03:00 +13°C° 0 mm 3 m/s 767 mmHg 73%
    04:00 +12°C° 0 mm 3 m/s 767 mmHg 73%
    05:00 +12°C° 0 mm 3 m/s 767 mmHg 74%
    06:00 +12°C° 0 mm 3 m/s 767 mmHg 70%
    07:00 +13°C° 0 mm 4 m/s 767 mmHg 65%
    08:00 +14°C° 0 mm 4 m/s 767 mmHg 61%
    09:00 +15°C° 0 mm 5 m/s 767 mmHg 56%
    10:00 +16°C° 0 mm 5 m/s 767 mmHg 52%
    11:00 +19°C° 0 mm 5 m/s 767 mmHg 47%
    12:00 +19°C° 0 mm 5 m/s 767 mmHg 45%
    13:00 +20°C° 0 mm 6 m/s 767 mmHg 43%
    14:00 +21°C° 0 mm 6 m/s 766 mmHg 41%
    15:00 +20°C° 0 mm 6 m/s 766 mmHg 42%
    16:00 +20°C° 0 mm 5 m/s 766 mmHg 42%
    17:00 +20°C° 0 mm 5 m/s 766 mmHg 43%
    18:00 +17°C° 0 mm 5 m/s 766 mmHg 47%
    19:00 +17°C° 0 mm 4 m/s 767 mmHg 50%
    20:00 +14°C° 0 mm 3 m/s 767 mmHg 54%
    21:00 +14°C° 0 mm 3 m/s 767 mmHg 54%
    22:00 +13°C° 0 mm 4 m/s 767 mmHg 53%
    23:00 +13°C° 0 mm 4 m/s 768 mmHg 53%

    29 Septembre, Vendredi

    Heure Température Précipitation Vent Pression Humidité
    00:00 +12°C° 0 mm 3 m/s 768 mmHg 55%
    01:00 +12°C° 0 mm 3 m/s 767 mmHg 57%
    02:00 +11°C° 0 mm 3 m/s 767 mmHg 58%
    03:00 +10°C° 0 mm 3 m/s 767 mmHg 62%
    04:00 +10°C° 0 mm 3 m/s 767 mmHg 65%
    05:00 +9°C° 0 mm 2 m/s 767 mmHg 69%
    06:00 +10°C° 0 mm 3 m/s 767 mmHg 66%
    07:00 +10°C° 0 mm 3 m/s 767 mmHg 63%
    08:00 +11°C° 0 mm 3 m/s 767 mmHg 60%
    09:00 +13°C° 0 mm 4 m/s 767 mmHg 54%
    10:00 +14°C° 0 mm 4 m/s 767 mmHg 48%
    11:00 +17°C° 0 mm 4 m/s 766 mmHg 43%
    12:00 +18°C° 0 mm 4 m/s 766 mmHg 40%
    13:00 +18°C° 0 mm 4 m/s 765 mmHg 37%
    14:00 +19°C° 0 mm 4 m/s 765 mmHg 34%
    15:00 +19°C° 0 mm 4 m/s 764 mmHg 34%
    16:00 +19°C° 0 mm 4 m/s 764 mmHg 34%
    17:00 +18°C° 0 mm 4 m/s 764 mmHg 34%
    18:00 +17°C° 0 mm 3 m/s 764 mmHg 38%
    19:00 +14°C° 0 mm 3 m/s 765 mmHg 41%
    20:00 +13°C° 0 mm 2 m/s 765 mmHg 45%
    21:00 +13°C° 0 mm 2 m/s 765 mmHg 46%
    22:00 +12°C° 0 mm 2 m/s 765 mmHg 48%
    23:00 +10°C° 0 mm 2 m/s 765 mmHg 49%

    30 Septembre, Samedi

    Heure Température Précipitation Vent Pression Humidité
    00:00 +10°C° 0 mm 2 m/s 765 mmHg 50%
    01:00 +9°C° 0 mm 2 m/s 765 mmHg 52%
    02:00 +9°C° 0 mm 2 m/s 765 mmHg 53%
    03:00 +8°C° 0 mm 2 m/s 765 mmHg 54%
    04:00 +9°C° 0 mm 1 m/s 764 mmHg 56%
    05:00 +9°C° 0 mm 1 m/s 764 mmHg 57%
    06:00 +9°C° 0 mm 1 m/s 764 mmHg 55%
    07:00 +10°C° 0 mm 1 m/s 764 mmHg 53%
    08:00 +11°C° 0 mm 1 m/s 764 mmHg 51%
    09:00 +13°C° 0 mm 2 m/s 764 mmHg 46%
    10:00 +15°C° 0 mm 2 m/s 763 mmHg 42%
    11:00 +17°C° 0 mm 2 m/s 763 mmHg 38%
    12:00 +17°C° 0 mm 2 m/s 762 mmHg 35%
    13:00 +18°C° 0 mm 2 m/s 762 mmHg 33%
    14:00 +19°C° 0 mm 3 m/s 761 mmHg 30%
    15:00 +19°C° 0 mm 2 m/s 761 mmHg 31%
    16:00 +19°C° 0 mm 2 m/s 761 mmHg 31%
    17:00 +18°C° 0 mm 2 m/s 760 mmHg 32%
    18:00 +17°C° 0 mm 2 m/s 761 mmHg 35%
    19:00 +15°C° 0 mm 1 m/s 761 mmHg 39%
    20:00 +13°C° 0 mm 1 m/s 761 mmHg 43%
    21:00 +12°C° 0 mm 1 m/s 761 mmHg 44%
    22:00 +12°C° 0 mm 1 m/s 762 mmHg 45%
    23:00 +11°C° 0 mm 1 m/s 762 mmHg 46%
    Voir plus